Location: Colle Santa Colomba
(42.0333°N, 12.5667°E)
Time: 04:02:26
(UTC+00:00)

Cosmos 1328 - Pass Details

Date: 25 October 2021
Orbit: 529 x 552 km, 82.5° (Epoch: 05 December)

Event Time Altitude Azimuth Distance (km) Brightness Sun altitude
Rises 17:12:33 0° 349° (N) 2,736 7.4 -11.7°
Reaches altitude 10° 17:14:44 10° 347° (NNW) 1,838 6.6 -12.1°
Maximum altitude 17:18:45 69° 265° (W) 596 4.2 -12.8°
Drops below altitude 10° 17:22:44 10° 182° (S) 1,823 6.5 -13.6°
Sets 17:24:54 0° 180° (S) 2,710 7.4 -14.0°
